Hourly Weather Gorodische

Today, 21 September, Monday

Time Temperature Precipitation Wind Pressure Humidity
00:00 +5°C° 0 mm 3 mps 746 mmHg 86%
01:00 +5°C° 0 mm 3 mps 746 mmHg 86%
02:00 +5°C° 0 mm 3 mps 746 mmHg 87%
03:00 +5°C° 0 mm 3 mps 746 mmHg 87%
04:00 +5°C° 0 mm 4 mps 746 mmHg 88%
05:00 +4°C° 0 mm 4 mps 746 mmHg 89%
06:00 +4°C° 0 mm 4 mps 746 mmHg 90%
07:00 +6°C° 0 mm 5 mps 746 mmHg 86%
08:00 +7°C° 0 mm 6 mps 746 mmHg 81%
09:00 +8°C° 0 mm 6 mps 746 mmHg 77%
10:00 +9°C° 0 mm 6 mps 745 mmHg 73%
11:00 +10°C° 0 mm 6 mps 745 mmHg 68%
12:00 +11°C° 0 mm 7 mps 745 mmHg 64%
13:00 +12°C° 0 mm 7 mps 745 mmHg 63%
14:00 +14°C° 0 mm 7 mps 745 mmHg 61%
15:00 +15°C° 0 mm 7 mps 745 mmHg 60%
16:00 +14°C° 0 mm 6 mps 745 mmHg 64%
17:00 +13°C° 0 mm 5 mps 745 mmHg 69%
18:00 +12°C° 0 mm 4 mps 745 mmHg 73%
19:00 +12°C° 0 mm 4 mps 745 mmHg 77%
20:00 +11°C° 0 mm 4 mps 745 mmHg 81%
21:00 +10°C° 0 mm 4 mps 745 mmHg 85%
22:00 +10°C° 0 mm 4 mps 745 mmHg 88%
23:00 +10°C° 0 mm 4 mps 745 mmHg 90%

Tomorrow, 22 September, Tuesday

Time Temperature Precipitation Wind Pressure Humidity
00:00 +10°C° 0 mm 4 mps 745 mmHg 92%
01:00 +10°C° 0 mm 4 mps 745 mmHg 91%
02:00 +11°C° 0 mm 4 mps 745 mmHg 89%
03:00 +11°C° 0 mm 4 mps 745 mmHg 88%
04:00 +10°C° 0 mm 5 mps 745 mmHg 90%
05:00 +10°C° 0 mm 5 mps 744 mmHg 92%
06:00 +9°C° 0 mm 5 mps 744 mmHg 94%
07:00 +10°C° 0 mm 6 mps 744 mmHg 90%
08:00 +11°C° 0 mm 6 mps 744 mmHg 86%
09:00 +12°C° 0 mm 7 mps 745 mmHg 82%
10:00 +15°C° 0 mm 7 mps 744 mmHg 76%
11:00 +16°C° 0 mm 7 mps 744 mmHg 70%
12:00 +18°C° 0 mm 8 mps 744 mmHg 64%
13:00 +18°C° 0 mm 8 mps 744 mmHg 62%
14:00 +18°C° 0 mm 8 mps 744 mmHg 60%
15:00 +20°C° 0 mm 8 mps 744 mmHg 58%
16:00 +18°C° 0 mm 7 mps 744 mmHg 62%
17:00 +17°C° 0 mm 6 mps 744 mmHg 65%
18:00 +16°C° 0 mm 5 mps 743 mmHg 69%
19:00 +15°C° 0 mm 5 mps 744 mmHg 73%
20:00 +14°C° 0 mm 5 mps 744 mmHg 77%
21:00 +14°C° 0 mm 5 mps 744 mmHg 81%
22:00 +13°C° 0 mm 5 mps 744 mmHg 84%
23:00 +12°C° 0 mm 4 mps 744 mmHg 87%

Day after tomorrow, 23 September, Wednesday

Time Temperature Precipitation Wind Pressure Humidity
00:00 +12°C° 0 mm 4 mps 744 mmHg 90%
01:00 +11°C° 0 mm 3 mps 744 mmHg 91%
02:00 +11°C° 0 mm 3 mps 745 mmHg 92%
03:00 +11°C° 0 mm 3 mps 745 mmHg 93%
04:00 +10°C° 0 mm 3 mps 745 mmHg 93%
05:00 +10°C° 0 mm 2 mps 745 mmHg 93%
06:00 +10°C° 0 mm 2 mps 745 mmHg 93%
07:00 +12°C° 0 mm 2 mps 745 mmHg 89%
08:00 +14°C° 0 mm 2 mps 746 mmHg 84%
09:00 +15°C° 0 mm 2 mps 746 mmHg 80%
10:00 +17°C° 0 mm 2 mps 746 mmHg 74%
11:00 +18°C° 0 mm 2 mps 746 mmHg 67%
12:00 +20°C° 0 mm 2 mps 746 mmHg 61%
13:00 +20°C° 0 mm 2 mps 746 mmHg 60%
14:00 +21°C° 0 mm 3 mps 746 mmHg 58%
15:00 +22°C° 0 mm 3 mps 745 mmHg 56%
16:00 +20°C° 0 mm 2 mps 745 mmHg 62%
17:00 +19°C° 0 mm 2 mps 745 mmHg 67%
18:00 +18°C° 0 mm 2 mps 745 mmHg 73%
19:00 +17°C° 0 mm 2 mps 745 mmHg 76%
20:00 +16°C° 0 mm 2 mps 745 mmHg 79%
21:00 +15°C° 0 mm 2 mps 745 mmHg 81%
22:00 +15°C° 0 mm 2 mps 745 mmHg 81%
23:00 +15°C° 0 mm 2 mps 745 mmHg 80%

24 September, Thursday

Time Temperature Precipitation Wind Pressure Humidity
00:00 +14°C° 0 mm 2 mps 745 mmHg 79%
01:00 +14°C° 0 mm 2 mps 745 mmHg 78%
02:00 +14°C° 0 mm 2 mps 746 mmHg 76%
03:00 +14°C° 0 mm 2 mps 746 mmHg 75%
04:00 +13°C° 0 mm 1 mps 746 mmHg 75%
05:00 +13°C° 0 mm 1 mps 746 mmHg 75%
06:00 +13°C° 0 mm 1 mps 746 mmHg 74%
07:00 +14°C° 0 mm 1 mps 746 mmHg 71%
08:00 +15°C° 0 mm 2 mps 746 mmHg 68%
09:00 +16°C° 0 mm 2 mps 746 mmHg 64%
10:00 +18°C° 0 mm 2 mps 747 mmHg 59%
11:00 +20°C° 0 mm 2 mps 747 mmHg 54%
12:00 +21°C° 0 mm 2 mps 747 mmHg 49%
13:00 +23°C° 0 mm 2 mps 747 mmHg 48%
14:00 +23°C° 0 mm 2 mps 747 mmHg 46%
15:00 +24°C° 0 mm 2 mps 747 mmHg 45%
16:00 +21°C° 0 mm 2 mps 747 mmHg 49%
17:00 +20°C° 0 mm 2 mps 747 mmHg 54%
18:00 +19°C° 0 mm 1 mps 746 mmHg 59%
19:00 +18°C° 0 mm 1 mps 747 mmHg 60%
20:00 +17°C° 0 mm 2 mps 747 mmHg 62%
21:00 +16°C° 0 mm 2 mps 747 mmHg 63%
22:00 +15°C° 0 mm 2 mps 747 mmHg 65%
23:00 +15°C° 0 mm 2 mps 747 mmHg 68%

25 September, Friday

Time Temperature Precipitation Wind Pressure Humidity
00:00 +14°C° 0 mm 2 mps 747 mmHg 70%
01:00 +14°C° 0 mm 2 mps 747 mmHg 70%
02:00 +14°C° 0 mm 2 mps 747 mmHg 70%
03:00 +14°C° 0 mm 2 mps 747 mmHg 70%
04:00 +14°C° 0 mm 2 mps 747 mmHg 71%
05:00 +13°C° 0 mm 2 mps 747 mmHg 73%
06:00 +13°C° 0 mm 2 mps 747 mmHg 74%
07:00 +14°C° 0 mm 2 mps 747 mmHg 71%
08:00 +15°C° 0 mm 2 mps 747 mmHg 69%
09:00 +17°C° 0 mm 3 mps 747 mmHg 66%
10:00 +18°C° 0 mm 3 mps 748 mmHg 61%
11:00 +20°C° 0 mm 3 mps 748 mmHg 57%
12:00 +21°C° 0 mm 3 mps 748 mmHg 52%
13:00 +22°C° 0 mm 4 mps 747 mmHg 51%
14:00 +22°C° 0 mm 4 mps 747 mmHg 49%
15:00 +22°C° 0 mm 4 mps 747 mmHg 48%
16:00 +21°C° 0 mm 4 mps 747 mmHg 53%
17:00 +20°C° 0 mm 3 mps 747 mmHg 57%
18:00 +19°C° 0 mm 3 mps 747 mmHg 62%
19:00 +18°C° 0 mm 3 mps 747 mmHg 64%
20:00 +17°C° 0 mm 3 mps 747 mmHg 65%
21:00 +16°C° 0 mm 3 mps 747 mmHg 66%
22:00 +16°C° 0 mm 3 mps 747 mmHg 67%
23:00 +14°C° 0 mm 3 mps 747 mmHg 67%

26 September, Saturday

Time Temperature Precipitation Wind Pressure Humidity
00:00 +14°C° 0 mm 3 mps 747 mmHg 68%
01:00 +13°C° 0 mm 3 mps 747 mmHg 68%
02:00 +13°C° 0 mm 3 mps 747 mmHg 69%
03:00 +12°C° 0 mm 3 mps 747 mmHg 69%
04:00 +12°C° 0 mm 3 mps 747 mmHg 67%
05:00 +12°C° 0 mm 3 mps 747 mmHg 66%
06:00 +11°C° 0 mm 3 mps 747 mmHg 64%
07:00 +12°C° 0 mm 4 mps 747 mmHg 60%
08:00 +13°C° 0 mm 4 mps 747 mmHg 57%
09:00 +14°C° 0 mm 5 mps 747 mmHg 53%
10:00 +15°C° 0 mm 5 mps 747 mmHg 51%
11:00 +16°C° 0 mm 5 mps 747 mmHg 50%
12:00 +17°C° 0 mm 5 mps 747 mmHg 48%
13:00 +19°C° 0 mm 5 mps 747 mmHg 49%
14:00 +19°C° 0 mm 6 mps 747 mmHg 49%
15:00 +19°C° 0 mm 6 mps 747 mmHg 50%
16:00 +19°C° 0 mm 5 mps 747 mmHg 53%
17:00 +17°C° 0 mm 5 mps 747 mmHg 57%
18:00 +17°C° 0 mm 4 mps 747 mmHg 61%
19:00 +17°C° 0 mm 4 mps 747 mmHg 60%
20:00 +15°C° 0 mm 5 mps 748 mmHg 60%
21:00 +15°C° 0 mm 5 mps 748 mmHg 60%
22:00 +15°C° 0 mm 5 mps 748 mmHg 59%
23:00 +15°C° 0 mm 5 mps 748 mmHg 58%
Show more